Change the Weather History Date:

Wednesday, April 30, 2014

  Actual Average Record
Temperature  
Mean Temperature 64 °F -  
Max Temperature 73 °F 79 °F 93 °F (2002)
Min Temperature 55 °F 59 °F 46 °F (2005)
Degree Days  
Heating Degree Days 1    
Growing Degree Days 14 (Base 50)    
Moisture  
Dew Point 30 °F    
Average Humidity 30    
Maximum Humidity 38    
Minimum Humidity 20    
Precipitation  
Precipitation 0.00 in - - ()
Sea Level Pressure  
Sea Level Pressure 30.10 in    
Wind  
Wind Speed 9 mph (North)    
Max Wind Speed 17 mph    
Max Gust Speed 26 mph    
Visibility 10 miles    
Events      
Averages and records for this station are not official NWS values.
T = Trace of Precipitation, MM = Missing Value Source: NWS Daily Summary

Daily Weather History Graph

Daily Weather History Graph

Search for Another Location

Airport or City:

Trip Planner

Search our weather history database for the weather conditions in past years. The results will help you decide how hot, cold, wet, or windy it might be!

Date:

Astronomy

Apr. 30, 2014 Rise Set
Actual Time 6:49 AM CDT 8:10 PM CDT
Civil Twilight 6:24 AM CDT 8:36 PM CDT
Nautical Twilight 5:53 AM CDT 9:06 PM CDT
Astronomical Twilight 5:22 AM CDT 9:38 PM CDT
Moon 7:54 AM CDT (4/30) 9:47 PM CDT (4/30)
Length of Visible Light 14h 12m
Length of Day
13h 21m
New Moon, 2% of the Moon is Illuminated
Apr 30
New Moon
May 6
First Quarter
May 14
Full
May 21
Last Quarter
May 28
New

Hourly Weather History & Observations

Time (CDT) Temp. Dew Point Humidity Pressure Visibility Wind Dir Wind Speed Gust Speed Precip Events Conditions
12:53 AM 61.0 °F 28.9 °F 30% 30.00 in 10.0 mi North 5.8 mph - N/A   Overcast
1:53 AM 61.0 °F 30.0 °F 31% 30.01 in 10.0 mi NNW 6.9 mph - N/A   Overcast
2:53 AM 59.0 °F 30.0 °F 33% 30.03 in 10.0 mi NNW 5.8 mph - N/A   Overcast
3:53 AM 59.0 °F 30.0 °F 33% 30.04 in 10.0 mi NNW 9.2 mph - N/A   Overcast
4:53 AM 55.9 °F 30.0 °F 37% 30.04 in 10.0 mi NNW 8.1 mph - N/A   Overcast
5:53 AM 55.0 °F 30.0 °F 38% 30.05 in 10.0 mi North 8.1 mph - N/A   Partly Cloudy
6:53 AM 55.0 °F 28.9 °F 37% 30.08 in 10.0 mi North 12.7 mph - N/A   Clear
7:53 AM 55.0 °F 30.0 °F 38% 30.14 in 10.0 mi North 13.8 mph 21.9 mph N/A   Clear
8:53 AM 55.9 °F 30.0 °F 37% 30.15 in 10.0 mi North 15.0 mph 23.0 mph N/A   Clear
10:53 AM 61.0 °F 32.0 °F 34% 30.18 in 10.0 mi North 9.2 mph 19.6 mph N/A   Clear
11:53 AM 64.0 °F 32.0 °F 30% 30.19 in 10.0 mi North 13.8 mph 26.5 mph N/A   Clear
12:53 PM 66.0 °F 32.0 °F 28% 30.16 in 10.0 mi NNW 16.1 mph 25.3 mph N/A   Clear
1:53 PM 68.0 °F 33.1 °F 27% 30.14 in 10.0 mi North 17.3 mph 25.3 mph N/A   Clear
2:53 PM 69.1 °F 32.0 °F 25% 30.12 in 10.0 mi North 10.4 mph 21.9 mph N/A   Clear
3:53 PM 72.0 °F 30.9 °F 22% 30.09 in 10.0 mi North 8.1 mph - N/A   Clear
4:53 PM 73.0 °F 30.0 °F 20% 30.06 in 10.0 mi North 11.5 mph 19.6 mph N/A   Clear
5:53 PM 72.0 °F 30.0 °F 21% 30.06 in 10.0 mi Variable 5.8 mph - N/A   Clear
6:53 PM 70.0 °F 28.9 °F 22% 30.06 in 10.0 mi North 9.2 mph - N/A   Clear
7:53 PM 66.9 °F 28.9 °F 24% 30.08 in 10.0 mi NNE 8.1 mph - N/A   Clear
8:53 PM 64.0 °F 28.9 °F 27% 30.11 in 10.0 mi NNE 5.8 mph - N/A   Clear
9:53 PM 59.0 °F 30.0 °F 33% 30.14 in 10.0 mi NNE 3.5 mph - N/A   Clear
10:53 PM 57.0 °F 30.0 °F 36% 30.16 in 10.0 mi NNE 5.8 mph - N/A   Clear
11:53 PM 57.0 °F 28.9 °F 34% 30.17 in 10.0 mi North 5.8 mph - N/A   Clear